Satellite Actuals Today Synoptics Week ahead

Actual weather at the Black Mountains Gliding Club.

METARs

Birmingham

2019/07/23 15:20
EGBB 231520Z 18009KT CAVOK 30/16 Q1015

Brize Norton

2019/07/23 15:21
EGVN 231521Z 16010KT CAVOK 32/13 Q1014 NOSIG

Cardiff

2019/07/23 15:20
EGFF 231520Z AUTO 12008KT 9999 NCD 30/16 Q1013

Select station

2019/07/23 15:20
EGCC 231520Z AUTO VRB04KT 9999 NCD 28/17 Q1015

Decode?  - Copy the METAR (from the station code) and paste it into the METARs/TAFs box here.

Webcams
Current Long Mynd West

Airfield webcams

Talgarth Airfield looking EAST
Talgarth Airfield looking NORTH
Talgarth Airfield looking WEST
Bidford
Cambridge
Dunstable
Lasham
Long Mynd
Usk Airfield (South Wales GC)
Nympsfield airfield
Aston Down
Staverton- looking NE.
Oxford
Shenington Airfield, near Banbury - from the clubhouse, looking north
Parham airfield Sussex [Southdown GC]
Lasham airfield Hampshire

General webcams

Abergavenny looking west towards the Blorenge
Abersoch - Llyn peninsula - 2
Alvechurch, North Worcs.
Brecon Beacons National Park Visitor Centre webcam
Llangorse webcam
Newbury
Newtown, Powys
Wye Valley webcam - different views can be selected
Snowdon